Showing default

NANOSAT C BR1, 40024

Orbit data source: Space-Track

NANOSAT C BR1, 40024 is a Brazilian payload satellite in SSO that was launched on Thu, 19 Jun 2014 UTC via a DNEPR launch vehicle from the Orenburg, Russia (OREN). Payload-class satellites include a variety of spacecraft equipped with specific instruments for various scientific and technological missions. These include communications satellites like Starlink; space stations such as the ISS; scientific satellites like the Hubble; Earth observation satellites from companies like Planet Labs, Umbra, and HawkEye 360; GPS; miniature CubeSats for education and research; and military/defense satellites.

Loading next visibility...
Identifier
40024, 2014-033Q
Orbit
SSO
Country
Flag of BRBR / BRAZ
Related business
Manufacturer
INPES/UFSM
Mission
Operational Commercial Science
Bus & Motor
CUBESAT 1U, Unknown motor
Mass
1 kg wet, 1 kg dry
Launch date (UTC)
2014-06-19 (12 years ago)
Launch vehicle
DNEPR
Launch site
Orenburg, Russia (OREN)
Object type
Payload
Rocket body
Debris
Shape & HBR
Box, 0.1 m
Radar Cross Section
0.015 m², Small (<0.1 m²)

Expand to show TLE details & history
Last TLE update: 12 hours ago

TLE from 12 hours ago
0 NANOSAT C BR1
1 40024U 14033Q   26124.01521402  .00017379  00000-0  59918-3 0  9993
2 40024  98.0755 152.5330 0002771   8.3021 351.8263 15.30075690647221
Epoch: 2026-05-04T00:21Z
TLE epoch observation values (Epoch: 2026-05-04T00:21:54.491Z)
Latitude
-0.00001°
Longitude
-74.85453°
Altitude
476.79 km
Speed
7.628 km/s
True Right ascension
10h 10m 07s
True Declination
0° 00' 00"
Sunlit
Object was in daylight at epoch
Visualization orbit readout
Latitude
Unknown
Longitude
Unknown
Altitude
Unknown
Speed
Unknown
Apparent Right ascension
Unknown
Apparent Declination
Unknown
Sunlit
N/A
Visualization observer readout
Local Sidereal Time
20:14:02
Azimuth
Unknown
Elevation
Unknown
Doppler factor
Unknown
Orbital elements
Apogee altitude
474.467 km
Perigee altitude
470.67 km
Semi-major axis
6,850.706 km
Eccentricity
0.00028
Inclination
98.0755°
RAAN
152.533°
Arg. of periapsis
8.3021°
True anomaly
351.82178°
Mean anomaly
351.8263°
Eccentric anomaly
351.82404°
Mean motion
3.82772 °/min
Orbital period
94.05 mins
BSTAR
0.00059918
Loading maneuver chart data...
Computing Atmospheric mass density...
Loading historical data...
Loading historical data...
Loading historical data...
Loading historical data...
Loading historical data...
Loading historical data...
Loading historical data...

Documentation

Showing up to 5 results
|